Location: Unspecified
(49.2170°N, 0.0000°E)
Time: 14:21:44
(UTC+00:00)

Vanguard 3 - Pass Details

Date: 28 June 2019
Orbit: 507 x 3264 km, 33.4° (Epoch: 22 July)

Event Time Altitude Azimuth Distance (km) Brightness Sun altitude
Rises 08:54:13 0° 222° (SW) 7,172 11.8 45.0°
Reaches altitude 10° 09:00:11 10° 214° (SSW) 5,975 11.5 45.9°
Maximum altitude 09:14:05 30° 163° (SSE) 3,739 11.4 48.0°
Drops below altitude 10° 09:23:53 10° 109° (ESE) 4,182 11.7 49.5°
Sets 09:27:10 0° 98° (E) 4,805 11.7 49.9°
